Location: Fontevrault
(47.1823°N, 0.0493°E)
Time: 14:21:20
(UTC+00:00)

Lacrosse 5 - Pass Details

Date: 03 November 2021
Orbit: 714 x 724 km, 57.0° (Epoch: 28 August)

Event Time Altitude Azimuth Distance (km) Brightness Sun altitude
Rises 18:42:27 0° 242° (WSW) 3,131 6.2 -21.1°
Reaches altitude 10° 18:44:52 10° 245° (WSW) 2,212 5.3 -21.6°
Maximum altitude 18:49:55 64° 327° (NNW) 805 2.2 -22.4°
Enters shadow 18:51:40 39° 32° (NNE) 1,073 2.5 -22.7°
